TGM annuale;;;;;;;;;;;;;;;TGM annuale;;;;;;;;;;;;;;;TGM annuale;;;;;;;;;;;;;
Tratta nr.23 SR70, Km 7.000, Poppi(AR) (flussi ascendente/discendente);;;;;;;;;;;;;;;Tratta nr.23 SR70, Km 7.000, Poppi(AR) (flusso ascendente);;;;;;;;;;;;;;;Tratta nr.23 SR70, Km 7.000, Poppi(AR) (flusso discendente);;;;;;;;;;;;;
Anno;01 Motocicli;02 Auto e monovolume;03 Auto e monovolume con rimorchio;04 Furgoncini e camioncini;05 Camion;06 Autotreni;07 Autoarticolati;08 Autobus;09 Veicoli non classificati;Totale;Feriali;Festivi;Prefestivi;;Anno;01 Motocicli;02 Auto e monovolume;03 Auto e monovolume con rimorchio;04 Furgoncini e camioncini;05 Camion;06 Autotreni;07 Autoarticolati;08 Autobus;09 Veicoli non classificati;Totale;Feriali;Festivi;Prefestivi;;Anno;01 Motocicli;02 Auto e monovolume;03 Auto e monovolume con rimorchio;04 Furgoncini e camioncini;05 Camion;06 Autotreni;07 Autoarticolati;08 Autobus;09 Veicoli non classificati;Totale;Feriali;Festivi;Prefestivi
2016;112;9834;5;802;136;41;35;12;0;10977;11656;8164;11093;;2016;55;4933;2;411;64;20;17;6;0;5508;5850;4059;5607;;2016;57;4901;3;391;72;21;18;6;0;5469;5806;4105;5486
;;;;;;;;;;;;;;;;;;;;;;;;;;;;;;;;;;;;;;;;;;;
Tabella flussi 2016;;;;;;;;;;;;;;;Tabella flussi 2016;;;;;;;;;;;;;;;Tabella flussi 2016;;;;;;;;;;;;;
Tratta nr.23 SR70, Km 7.000, Poppi(AR) (flussi ascendente/discendente);;;;;;;;;;;;;;;Tratta nr.23 SR70, Km 7.000, Poppi(AR) (flusso ascendente);;;;;;;;;;;;;;;Tratta nr.23 SR70, Km 7.000, Poppi(AR) (flusso discendente);;;;;;;;;;;;;
;Traffico Totale;;;;;;;;;;Traffico Med.Orario 06:00 - 20:00;Traffico Ora di punta;;;;Traffico Totale;;;;;;;;;;Traffico Med.Orario 06:00 - 20:00;Traffico Ora di punta;;;;Traffico Totale;;;;;;;;;;Traffico Med.Orario 06:00 - 20:00;Traffico Ora di punta;
Giorno;01 Motocicli;02 Auto e monovolume;03 Auto e monovolume con rimorchio;04 Furgoncini e camioncini;05 Camion;06 Autotreni;07 Autoarticolati;08 Autobus;09 Veicoli non classificati;Totale;Totale;Ora di punta;Flusso totale ora di punta;;Giorno;01 Motocicli;02 Auto e monovolume;03 Auto e monovolume con rimorchio;04 Furgoncini e camioncini;05 Camion;06 Autotreni;07 Autoarticolati;08 Autobus;09 Veicoli non classificati;Totale;Totale;Ora di punta;Flusso totale ora di punta;;Giorno;01 Motocicli;02 Auto e monovolume;03 Auto e monovolume con rimorchio;04 Furgoncini e camioncini;05 Camion;06 Autotreni;07 Autoarticolati;08 Autobus;09 Veicoli non classificati;Totale;Totale;Ora di punta;Flusso totale ora di punta
01/01/2016;50;5552;1;288;18;0;0;14;0;5923;305;16;663;;01/01/2016;25;2818;1;145;8;0;0;7;0;3004;160;16;343;;01/01/2016;25;2734;0;143;10;0;0;7;0;2919;145;16;320
02/01/2016;46;8486;12;475;26;4;0;5;0;9054;568;11;915;;02/01/2016;25;4287;5;253;14;2;0;2;0;4588;288;11;478;;02/01/2016;21;4199;7;222;12;2;0;3;0;4466;280;11;437
03/01/2016;53;7017;0;305;16;2;0;11;0;7404;440;17;849;;03/01/2016;21;3507;0;151;5;2;0;7;0;3693;228;17;449;;03/01/2016;32;3510;0;154;11;0;0;4;0;3711;211;17;400
04/01/2016;55;10120;3;757;89;24;19;9;0;11076;714;17;1058;;04/01/2016;28;5085;1;367;46;9;10;3;0;5549;361;16;487;;04/01/2016;27;5035;2;390;43;15;9;6;0;5527;353;17;581
05/01/2016;56;10728;5;948;75;23;33;5;0;11873;762;17;1127;;05/01/2016;33;5428;3;495;36;12;15;2;0;6024;388;17;514;;05/01/2016;23;5300;2;453;39;11;18;3;0;5849;374;17;613
06/01/2016;35;6035;2;261;16;4;0;13;0;6366;371;17;675;;06/01/2016;19;3008;1;138;7;3;0;8;0;3184;195;16;394;;06/01/2016;16;3027;1;123;9;1;0;5;0;3182;177;17;315
07/01/2016;68;9887;3;981;161;39;34;12;0;11185;728;17;983;;07/01/2016;26;4939;2;513;74;20;14;6;0;5594;370;8;534;;07/01/2016;42;4948;1;468;87;19;20;6;0;5591;358;17;517
08/01/2016;49;10394;3;993;129;35;27;9;0;11639;751;17;1067;;08/01/2016;26;5224;0;514;63;13;13;6;0;5859;381;8;495;;08/01/2016;23;5170;3;479;66;22;14;3;0;5780;370;17;584
09/01/2016;56;10144;2;564;58;11;5;8;0;10848;651;17;904;;09/01/2016;31;5155;2;270;25;8;3;5;0;5499;331;10;477;;09/01/2016;25;4989;0;294;33;3;2;3;0;5349;320;11;471
10/01/2016;59;7476;1;298;12;3;0;12;0;7861;452;16;855;;10/01/2016;42;3683;0;145;4;2;0;8;0;3884;234;16;501;;10/01/2016;17;3793;1;153;8;1;0;4;0;3977;217;18;440
11/01/2016;62;10138;2;968;177;45;39;10;0;11441;746;17;1082;;11/01/2016;27;5080;1;470;79;22;17;5;0;5701;376;17;533;;11/01/2016;35;5058;1;498;98;23;22;5;0;5740;369;17;549
12/01/2016;82;10241;5;1048;170;40;46;11;0;11643;761;17;1120;;12/01/2016;40;5135;1;535;73;14;24;5;0;5827;383;8;533;;12/01/2016;42;5106;4;513;97;26;22;6;0;5816;378;17;601
13/01/2016;71;10261;3;1003;152;56;50;8;0;11604;750;17;1049;;13/01/2016;33;5127;2;500;73;25;24;4;0;5788;380;8;527;;13/01/2016;38;5134;1;503;79;31;26;4;0;5816;370;18;587
14/01/2016;73;10546;4;988;198;37;55;13;0;11914;771;17;1044;;14/01/2016;30;5315;2;479;90;22;27;6;0;5971;390;8;568;;14/01/2016;43;5231;2;509;108;15;28;7;0;5943;380;18;543
15/01/2016;57;10915;4;1020;149;37;42;8;0;12232;784;17;1057;;15/01/2016;34;5491;2;529;76;17;21;5;0;6175;398;8;561;;15/01/2016;23;5424;2;491;73;20;21;3;0;6057;386;18;588
16/01/2016;50;10192;5;529;71;4;16;10;0;10877;662;17;910;;16/01/2016;27;5195;2;268;31;2;8;5;0;5538;341;16;496;;16/01/2016;23;4997;3;261;40;2;8;5;0;5339;321;11;467
17/01/2016;71;7207;1;343;17;4;0;12;0;7655;449;17;856;;17/01/2016;28;3577;0;163;7;0;0;7;0;3782;228;17;478;;17/01/2016;43;3630;1;180;10;4;0;5;0;3873;220;18;387
18/01/2016;74;10316;8;994;162;46;49;8;0;11657;764;17;1115;;18/01/2016;39;5162;5;497;73;25;20;4;0;5825;387;17;528;;18/01/2016;35;5154;3;497;89;21;29;4;0;5832;377;18;597
19/01/2016;56;10187;3;1103;175;48;52;9;0;11633;762;17;1083;;19/01/2016;26;5091;1;555;86;23;26;3;0;5811;384;17;520;;19/01/2016;30;5096;2;548;89;25;26;6;0;5822;379;17;563
20/01/2016;67;9925;4;1014;218;37;56;9;0;11330;742;17;1060;;20/01/2016;36;4971;2;518;106;11;28;4;0;5676;376;8;518;;20/01/2016;31;4954;2;496;112;26;28;5;0;5654;365;17;565
21/01/2016;60;10416;4;1026;195;40;52;8;0;11801;762;17;1055;;21/01/2016;34;5221;2;502;87;22;23;6;0;5897;384;8;507;;21/01/2016;26;5195;2;524;108;18;29;2;0;5904;378;18;577
22/01/2016;62;10569;3;1115;157;30;39;15;0;11990;769;17;1046;;22/01/2016;33;5332;1;551;77;16;20;8;0;6038;390;8;535;;22/01/2016;29;5237;2;564;80;14;19;7;0;5952;380;18;565
23/01/2016;95;10385;4;585;72;8;3;4;0;11156;677;17;995;;23/01/2016;45;5282;2;289;31;4;1;2;0;5656;345;17;534;;23/01/2016;50;5103;2;296;41;4;2;2;0;5500;332;18;495
24/01/2016;46;7343;0;295;18;2;3;12;0;7719;446;17;846;;24/01/2016;22;3649;0;139;4;2;2;8;0;3826;230;16;485;;24/01/2016;24;3694;0;156;14;0;1;4;0;3893;216;17;415
25/01/2016;74;9823;3;993;158;46;50;12;0;11159;731;18;1030;;25/01/2016;28;4898;1;500;75;15;27;6;0;5550;368;8;501;;25/01/2016;46;4925;2;493;83;31;23;6;0;5609;363;18;586
26/01/2016;69;10235;4;1093;167;37;44;8;0;11657;766;17;1061;;26/01/2016;34;5136;1;537;75;19;20;4;0;5826;385;8;547;;26/01/2016;35;5099;3;556;92;18;24;4;0;5831;381;18;548
27/01/2016;65;10425;7;954;149;37;52;11;0;11700;758;17;1045;;27/01/2016;32;5199;4;484;70;17;28;7;0;5841;383;8;503;;27/01/2016;33;5226;3;470;79;20;24;4;0;5859;375;17;571
28/01/2016;63;10387;0;944;167;38;49;10;0;11658;751;17;1021;;28/01/2016;30;5228;0;476;74;20;21;5;0;5854;382;8;546;;28/01/2016;33;5159;0;468;93;18;28;5;0;5804;369;18;553
29/01/2016;71;10667;4;1083;179;43;47;11;0;12105;774;17;1096;;29/01/2016;35;5406;1;556;92;18;24;6;0;6138;391;17;535;;29/01/2016;36;5261;3;527;87;25;23;5;0;5967;383;18;585
30/01/2016;54;10258;1;572;54;6;7;9;0;10961;663;17;915;;30/01/2016;32;5183;0;299;26;3;4;5;0;5552;338;17;488;;30/01/2016;22;5075;1;273;28;3;3;4;0;5409;325;12;458
31/01/2016;44;7161;1;307;15;0;1;17;0;7546;438;17;760;;31/01/2016;18;3511;1;159;5;0;1;9;0;3704;225;16;433;;31/01/2016;26;3650;0;148;10;0;0;8;0;3842;213;18;365
01/02/2016;82;10203;0;958;185;33;46;9;0;11516;753;17;1111;;01/02/2016;42;5075;0;484;92;20;20;5;0;5738;380;17;516;;01/02/2016;40;5128;0;474;93;13;26;4;0;5778;373;18;615
02/02/2016;63;10495;3;1095;180;38;41;7;0;11922;781;17;1067;;02/02/2016;28;5272;1;552;87;16;17;2;0;5975;394;8;545;;02/02/2016;35;5223;2;543;93;22;24;5;0;5947;387;17;573
03/02/2016;86;10119;1;982;193;33;38;9;0;11461;746;17;1034;;03/02/2016;42;5062;1;489;99;14;20;3;0;5730;379;8;531;;03/02/2016;44;5057;0;493;94;19;18;6;0;5731;367;18;588
04/02/2016;69;10554;3;1029;183;46;58;12;0;11954;771;18;1030;;04/02/2016;43;5339;2;512;92;24;26;4;0;6042;394;8;590;;04/02/2016;26;5215;1;517;91;22;32;8;0;5912;377;18;595
05/02/2016;67;10601;2;1118;175;59;52;13;0;12087;770;17;1070;;05/02/2016;37;5344;1;560;85;29;23;6;0;6085;390;8;531;;05/02/2016;30;5257;1;558;90;30;29;7;0;6002;380;17;568
06/02/2016;76;10327;1;579;58;5;4;9;0;11059;675;17;971;;06/02/2016;41;5247;0;289;29;2;2;4;0;5614;345;17;491;;06/02/2016;35;5080;1;290;29;3;2;5;0;5445;330;17;480
07/02/2016;46;6935;7;273;18;4;0;12;0;7295;423;17;724;;07/02/2016;17;3416;3;141;7;2;0;8;0;3594;216;17;379;;07/02/2016;29;3519;4;132;11;2;0;4;0;3701;207;18;346
08/02/2016;66;10321;5;966;171;42;33;14;0;11618;758;17;1044;;08/02/2016;36;5178;3;484;85;20;14;6;0;5826;385;8;543;;08/02/2016;30;5143;2;482;86;22;19;8;0;5792;373;18;582
09/02/2016;71;10313;7;1208;175;45;60;12;0;11891;760;17;1012;;09/02/2016;29;5205;3;599;80;23;20;5;0;5964;383;8;509;;09/02/2016;42;5108;4;609;95;22;40;7;0;5927;377;18;566
10/02/2016;88;10513;2;965;171;38;44;9;0;11830;741;17;1018;;10/02/2016;48;5254;0;482;84;15;20;3;0;5906;374;8;503;;10/02/2016;40;5259;2;483;87;23;24;6;0;5924;367;18;581
11/02/2016;95;10505;1;994;159;36;43;13;0;11846;766;18;1044;;11/02/2016;43;5287;1;487;77;16;23;8;0;5942;389;8;523;;11/02/2016;52;5218;0;507;82;20;20;5;0;5904;377;18;577
12/02/2016;57;10760;1;1057;179;40;53;11;0;12158;781;17;1080;;12/02/2016;23;5403;1;525;85;21;28;5;0;6091;391;8;558;;12/02/2016;34;5357;0;532;94;19;25;6;0;6067;390;18;578
13/02/2016;60;10615;3;659;68;8;6;13;0;11432;711;17;951;;13/02/2016;26;5344;1;325;27;4;2;7;0;5736;357;16;472;;13/02/2016;34;5271;2;334;41;4;4;6;0;5696;354;17;502
14/02/2016;45;7120;2;318;14;4;0;15;0;7518;431;17;813;;14/02/2016;17;3547;0;165;5;1;0;10;0;3745;223;17;427;;14/02/2016;28;3573;2;153;9;3;0;5;0;3773;209;17;386
15/02/2016;80;10260;1;975;150;52;37;11;0;11566;750;17;1107;;15/02/2016;39;5129;1;483;69;24;19;4;0;5768;377;8;541;;15/02/2016;41;5131;0;492;81;28;18;7;0;5798;373;18;601
16/02/2016;71;10512;6;1076;162;54;55;12;0;11948;780;17;1100;;16/02/2016;42;5295;3;541;77;25;27;6;0;6016;397;8;574;;16/02/2016;29;5217;3;535;85;29;28;6;0;5932;383;17;583
17/02/2016;78;10292;4;911;178;30;46;8;0;11547;749;18;987;;17/02/2016;41;5138;1;458;87;12;20;3;0;5760;379;8;528;;17/02/2016;37;5154;3;453;91;18;26;5;0;5787;370;18;569
18/02/2016;67;10551;2;1078;184;39;59;6;0;11986;770;17;1094;;18/02/2016;36;5321;0;536;78;18;31;3;0;6023;391;17;542;;18/02/2016;31;5230;2;542;106;21;28;3;0;5963;379;18;629
19/02/2016;66;10707;6;1102;186;43;34;7;0;12151;777;17;1049;;19/02/2016;31;5438;3;552;90;14;20;6;0;6154;395;8;549;;19/02/2016;35;5269;3;550;96;29;14;1;0;5997;382;18;601
20/02/2016;87;10651;4;692;61;18;8;13;0;11534;699;17;1052;;20/02/2016;37;5391;2;348;26;11;2;8;0;5825;357;17;521;;20/02/2016;50;5260;2;344;35;7;6;5;0;5709;342;17;531
21/02/2016;65;7500;1;331;19;2;0;11;0;7929;452;18;788;;21/02/2016;24;3701;1;166;7;0;0;6;0;3905;231;16;436;;21/02/2016;41;3799;0;165;12;2;0;5;0;4024;221;18;423
22/02/2016;80;10153;5;1042;150;49;28;15;0;11522;751;17;1079;;22/02/2016;39;5067;2;539;75;23;14;6;0;5765;380;17;531;;22/02/2016;41;5086;3;503;75;26;14;9;0;5757;371;18;585
23/02/2016;80;10428;4;1028;168;42;56;8;0;11814;769;17;1057;;23/02/2016;37;5231;2;500;77;20;24;5;0;5896;386;7;531;;23/02/2016;43;5197;2;528;91;22;32;3;0;5918;382;18;587
24/02/2016;74;10164;6;989;164;38;40;8;0;11483;741;17;1081;;24/02/2016;35;5092;3;511;74;16;15;5;0;5751;375;17;518;;24/02/2016;39;5072;3;478;90;22;25;3;0;5732;365;18;597
25/02/2016;76;10511;2;1013;177;35;46;10;0;11870;766;17;1078;;25/02/2016;30;5258;2;501;94;16;22;6;0;5929;386;17;524;;25/02/2016;46;5253;0;512;83;19;24;4;0;5941;380;18;563
26/02/2016;92;11096;2;1049;169;34;43;12;0;12497;798;17;1088;;26/02/2016;45;5570;1;530;77;19;23;6;0;6271;401;8;539;;26/02/2016;47;5526;1;519;92;15;20;6;0;6226;397;18;629
27/02/2016;62;10223;1;547;54;8;3;12;0;10910;669;17;916;;27/02/2016;29;5172;1;278;26;3;1;7;0;5517;340;10;463;;27/02/2016;33;5051;0;269;28;5;2;5;0;5393;329;11;491
28/02/2016;66;6971;1;294;18;3;0;13;0;7366;429;17;715;;28/02/2016;39;3399;1;151;7;0;0;7;0;3604;218;16;393;;28/02/2016;27;3572;0;143;11;3;0;6;0;3762;210;18;362
29/02/2016;58;10088;3;852;143;36;38;10;0;11228;734;17;1030;;29/02/2016;25;5071;2;425;66;14;21;5;0;5629;371;7;526;;29/02/2016;33;5017;1;427;77;22;17;5;0;5599;363;18;588
01/03/2016;69;10278;7;1155;173;60;54;12;0;11808;769;18;1017;;01/03/2016;24;5169;3;577;80;26;23;4;0;5906;387;8;536;;01/03/2016;45;5109;4;578;93;34;31;8;0;5902;383;18;583
02/03/2016;78;10123;3;948;170;34;51;7;0;11414;740;17;1008;;02/03/2016;38;5095;1;475;85;13;29;3;0;5739;378;8;515;;02/03/2016;40;5028;2;473;85;21;22;4;0;5675;362;18;565
03/03/2016;65;10482;5;1073;166;55;57;14;0;11917;773;18;1036;;03/03/2016;31;5335;0;531;84;26;20;5;0;6032;396;8;547;;03/03/2016;34;5147;5;542;82;29;37;9;0;5885;378;18;596
04/03/2016;63;11092;7;1031;195;40;46;9;0;12483;797;17;1080;;04/03/2016;26;5645;1;524;96;15;23;6;0;6336;404;8;564;;04/03/2016;37;5447;6;507;99;25;23;3;0;6147;392;18;618
05/03/2016;70;10070;3;599;58;14;4;11;0;10829;666;17;874;;05/03/2016;38;5079;1;316;28;8;3;5;0;5478;342;16;470;;05/03/2016;32;4991;2;283;30;6;1;6;0;5351;324;11;463
06/03/2016;69;7450;0;344;14;4;0;14;0;7895;455;17;805;;06/03/2016;35;3728;0;161;6;1;0;6;0;3937;235;17;453;;06/03/2016;34;3722;0;183;8;3;0;8;0;3958;220;18;386
07/03/2016;81;10365;8;993;181;39;65;11;0;11743;765;17;1032;;07/03/2016;40;5163;2;506;88;20;34;6;0;5859;387;8;541;;07/03/2016;41;5202;6;487;93;19;31;5;0;5884;378;18;600
08/03/2016;60;10423;3;1062;176;40;48;10;0;11822;766;17;1061;;08/03/2016;25;5273;1;538;89;16;23;6;0;5971;388;8;566;;08/03/2016;35;5150;2;524;87;24;25;4;0;5851;377;18;572
09/03/2016;69;10147;0;1006;176;39;41;10;0;11488;743;17;1042;;09/03/2016;32;5111;0;512;82;16;21;5;0;5779;378;17;519;;09/03/2016;37;5036;0;494;94;23;20;5;0;5709;365;18;615
10/03/2016;94;10382;3;1020;200;47;54;11;0;11811;763;17;1012;;10/03/2016;43;5247;2;519;96;19;28;6;0;5960;390;8;560;;10/03/2016;51;5135;1;501;104;28;26;5;0;5851;372;18;540
11/03/2016;79;10918;7;1149;187;45;63;12;0;12460;785;17;1122;;11/03/2016;40;5421;3;585;81;22;36;6;0;6194;395;17;532;;11/03/2016;39;5497;4;564;106;23;27;6;0;6266;389;17;590
12/03/2016;62;10935;10;637;56;12;4;11;0;11727;717;17;985;;12/03/2016;32;5533;5;331;23;7;2;6;0;5939;363;16;472;;12/03/2016;30;5402;5;306;33;5;2;5;0;5788;353;17;518
13/03/2016;69;7773;2;388;24;4;1;11;0;8272;490;17;909;;13/03/2016;26;3815;1;204;14;2;0;5;0;4067;250;17;502;;13/03/2016;43;3958;1;184;10;2;1;6;0;4205;240;18;424
14/03/2016;79;10495;3;1042;166;38;37;13;0;11873;776;18;1060;;14/03/2016;35;5260;1;523;90;18;19;7;0;5953;394;8;558;;14/03/2016;44;5235;2;519;76;20;18;6;0;5920;382;18;633
15/03/2016;69;10360;3;1109;166;29;33;12;0;11781;771;17;1054;;15/03/2016;34;5211;1;546;76;16;18;6;0;5908;391;8;534;;15/03/2016;35;5149;2;563;90;13;15;6;0;5873;380;18;622
16/03/2016;63;10218;6;977;171;39;50;9;0;11533;748;17;1107;;16/03/2016;31;5102;2;498;76;16;27;6;0;5758;378;17;542;;16/03/2016;32;5116;4;479;95;23;23;3;0;5775;370;18;635
17/03/2016;79;11039;11;1130;193;39;56;10;0;12557;807;18;1109;;17/03/2016;34;5489;5;558;98;15;29;4;0;6232;403;8;545;;17/03/2016;45;5550;6;572;95;24;27;6;0;6325;404;18;669
18/03/2016;74;11107;5;1108;180;39;44;10;0;12567;800;17;1180;;18/03/2016;47;5628;2;557;85;19;24;5;0;6367;408;17;571;;18/03/2016;27;5479;3;551;95;20;20;5;0;6200;392;18;628
19/03/2016;63;10919;4;654;73;13;12;9;0;11747;717;17;990;;19/03/2016;34;5552;2;328;37;6;4;4;0;5967;365;18;477;;19/03/2016;29;5367;2;326;36;7;8;5;0;5780;352;17;514
20/03/2016;67;7711;5;435;19;5;0;13;0;8255;481;17;861;;20/03/2016;23;3831;1;223;6;2;0;7;0;4093;241;17;482;;20/03/2016;44;3880;4;212;13;3;0;6;0;4162;239;18;404
21/03/2016;76;10618;2;1072;198;44;63;11;0;12084;789;17;1139;;21/03/2016;26;5318;1;528;100;17;29;7;0;6026;398;8;547;;21/03/2016;50;5300;1;544;98;27;34;4;0;6058;391;17;607
22/03/2016;91;10815;5;1219;185;48;56;9;0;12428;816;17;1118;;22/03/2016;50;5456;2;605;82;24;32;4;0;6255;413;8;567;;22/03/2016;41;5359;3;614;103;24;24;5;0;6173;404;18;630
23/03/2016;85;11106;2;1038;173;47;44;12;0;12507;806;17;1141;;23/03/2016;49;5617;0;519;73;23;25;5;0;6311;409;17;571;;23/03/2016;36;5489;2;519;100;24;19;7;0;6196;397;18;629
24/03/2016;72;11422;3;1082;171;44;65;8;0;12867;821;17;1181;;24/03/2016;37;5819;1;540;84;19;39;3;0;6542;420;17;585;;24/03/2016;35;5603;2;542;87;25;26;5;0;6325;401;18;641
25/03/2016;76;11758;4;1132;148;30;42;5;0;13195;838;18;1188;;25/03/2016;32;5958;1;593;71;13;23;3;0;6694;426;17;580;;25/03/2016;44;5800;3;539;77;17;19;2;0;6501;412;18;655
26/03/2016;64;10811;6;655;57;4;3;7;0;11607;708;17;1035;;26/03/2016;27;5469;5;314;22;2;1;4;0;5844;358;17;513;;26/03/2016;37;5342;1;341;35;2;2;3;0;5763;350;17;522
27/03/2016;65;7728;1;340;13;2;0;10;0;8159;455;18;857;;27/03/2016;34;3909;1;171;5;0;0;7;0;4127;229;18;486;;27/03/2016;31;3819;0;169;8;2;0;3;0;4032;226;17;405
28/03/2016;62;7817;0;412;24;4;1;12;0;8332;481;18;858;;28/03/2016;29;3822;0;189;7;2;1;9;0;4059;236;18;447;;28/03/2016;33;3995;0;223;17;2;0;3;0;4273;245;18;411
29/03/2016;84;10629;5;1107;168;52;40;9;0;12094;778;17;1121;;29/03/2016;36;5301;3;538;78;25;20;4;0;6005;393;17;570;;29/03/2016;48;5328;2;569;90;27;20;5;0;6089;385;18;643
30/03/2016;65;10532;9;1003;180;37;51;9;0;11886;767;17;1035;;30/03/2016;34;5301;5;530;85;21;25;6;0;6007;393;8;547;;30/03/2016;31;5231;4;473;95;16;26;3;0;5879;373;18;572
31/03/2016;78;10944;4;1083;186;53;57;10;0;12415;797;18;1073;;31/03/2016;32;5500;2;555;90;23;29;4;0;6235;405;8;546;;31/03/2016;46;5444;2;528;96;30;28;6;0;6180;392;18;596
01/04/2016;84;11280;4;1155;187;37;42;14;0;12803;812;18;1098;;01/04/2016;36;5695;2;595;87;11;21;7;0;6454;412;17;541;;01/04/2016;48;5585;2;560;100;26;21;7;0;6349;400;18;628
02/04/2016;89;10976;5;696;62;21;4;11;0;11864;702;18;942;;02/04/2016;43;5546;4;346;28;12;0;4;0;5983;360;10;483;;02/04/2016;46;5430;1;350;34;9;4;7;0;5881;343;18;510
03/04/2016;81;8354;7;374;21;4;0;11;0;8852;506;18;852;;03/04/2016;45;4120;2;190;8;2;0;7;0;4374;261;18;452;;03/04/2016;36;4234;5;184;13;2;0;4;0;4478;245;18;400
04/04/2016;76;10418;2;1042;218;43;41;15;0;11855;770;18;1087;;04/04/2016;41;5228;0;519;108;18;22;9;0;5945;390;8;570;;04/04/2016;35;5190;2;523;110;25;19;6;0;5910;380;18;616
05/04/2016;88;10632;2;1179;194;50;56;12;0;12213;790;17;1106;;05/04/2016;48;5312;1;598;91;23;26;6;0;6105;397;8;552;;05/04/2016;40;5320;1;581;103;27;30;6;0;6108;393;17;577
06/04/2016;82;10646;5;1045;218;43;60;16;0;12115;780;17;1095;;06/04/2016;31;5362;3;522;92;16;36;9;0;6071;395;17;530;;06/04/2016;51;5284;2;523;126;27;24;7;0;6044;385;18;610
07/04/2016;93;10918;2;1026;206;46;67;13;0;12371;788;18;1083;;07/04/2016;51;5493;0;518;104;19;39;7;0;6231;400;8;574;;07/04/2016;42;5425;2;508;102;27;28;6;0;6140;388;18;638
08/04/2016;83;11172;2;1214;187;38;45;18;0;12759;811;17;1116;;08/04/2016;32;5703;0;618;88;17;26;11;0;6495;415;8;557;;08/04/2016;51;5469;2;596;99;21;19;7;0;6264;395;17;576
09/04/2016;79;11341;2;666;63;15;3;20;0;12189;740;17;1036;;09/04/2016;42;5724;1;341;30;7;2;8;0;6155;378;17;527;;09/04/2016;37;5617;1;325;33;8;1;12;0;6034;362;11;524
10/04/2016;71;9611;6;543;24;9;0;10;0;10274;608;18;1088;;10/04/2016;34;4678;2;271;9;7;0;7;0;5008;300;18;663;;10/04/2016;37;4933;4;272;15;2;0;3;0;5266;308;16;593
11/04/2016;67;10238;5;1064;179;55;55;16;0;11679;757;17;1057;;11/04/2016;32;5156;2;540;79;24;27;9;0;5869;383;17;521;;11/04/2016;35;5082;3;524;100;31;28;7;0;5810;373;18;636
12/04/2016;87;10388;7;1114;209;40;52;12;0;11909;772;18;1020;;12/04/2016;42;5211;3;554;88;19;25;5;0;5947;390;8;532;;12/04/2016;45;5177;4;560;121;21;27;7;0;5962;382;18;595
13/04/2016;90;10384;11;1084;183;44;47;10;0;11853;762;18;1073;;13/04/2016;48;5183;6;543;87;22;19;5;0;5913;384;8;543;;13/04/2016;42;5201;5;541;96;22;28;5;0;5940;378;18;626
14/04/2016;82;10685;4;1171;211;46;79;12;0;12290;784;17;1082;;14/04/2016;41;5319;3;600;104;20;41;5;0;6133;395;8;545;;14/04/2016;41;5366;1;571;107;26;38;7;0;6157;389;18;616
15/04/2016;83;11042;1;1209;198;36;63;12;0;12644;798;17;1078;;15/04/2016;39;5630;0;581;97;15;39;6;0;6407;406;8;544;;15/04/2016;44;5412;1;628;101;21;24;6;0;6237;392;18;608
16/04/2016;93;11005;6;709;79;17;9;12;0;11930;708;17;932;;16/04/2016;50;5620;3;353;30;7;4;6;0;6073;359;10;474;;16/04/2016;43;5385;3;356;49;10;5;6;0;5857;348;18;488
17/04/2016;79;8717;6;392;22;2;0;13;0;9231;531;18;925;;17/04/2016;46;4298;3;188;11;1;0;6;0;4553;271;18;498;;17/04/2016;33;4419;3;204;11;1;0;7;0;4678;261;17;432
18/04/2016;85;10525;11;1000;208;65;55;11;0;11960;772;17;1134;;18/04/2016;44;5244;7;504;104;34;30;4;0;5971;389;17;559;;18/04/2016;41;5281;4;496;104;31;25;7;0;5989;383;18;633
19/04/2016;86;10769;7;1056;219;50;34;16;0;12237;793;17;1109;;19/04/2016;41;5362;4;563;99;25;16;11;0;6121;398;17;536;;19/04/2016;45;5407;3;493;120;25;18;5;0;6116;395;18;583
20/04/2016;114;10598;8;931;217;50;51;26;0;11995;776;17;1048;;20/04/2016;53;5290;4;481;100;25;25;14;0;5992;390;8;529;;20/04/2016;61;5308;4;450;117;25;26;12;0;6003;386;18;590
21/04/2016;112;10920;4;937;221;45;49;15;0;12303;789;18;1080;;21/04/2016;54;5503;3;484;102;22;23;9;0;6200;401;8;546;;21/04/2016;58;5417;1;453;119;23;26;6;0;6103;388;18;604
22/04/2016;128;11347;10;1079;186;49;50;16;0;12865;818;17;1187;;22/04/2016;60;5720;3;568;86;21;27;11;0;6496;414;8;544;;22/04/2016;68;5627;7;511;100;28;23;5;0;6369;404;18;647
23/04/2016;98;11050;6;561;65;18;14;13;0;11825;722;17;984;;23/04/2016;59;5555;1;297;32;11;8;9;0;5972;368;10;482;;23/04/2016;39;5495;5;264;33;7;6;4;0;5853;354;18;530
24/04/2016;64;7800;1;296;21;5;0;13;0;8200;478;18;838;;24/04/2016;38;3872;0;145;11;3;0;6;0;4075;242;16;422;;24/04/2016;26;3928;1;151;10;2;0;7;0;4125;235;18;455
25/04/2016;95;7378;3;303;33;2;2;11;0;7827;457;18;769;;25/04/2016;46;3741;1;164;15;1;1;6;0;3975;232;16;370;;25/04/2016;49;3637;2;139;18;1;1;5;0;3852;225;18;413
26/04/2016;110;10655;4;998;204;54;40;17;0;12082;782;18;1071;;26/04/2016;55;5316;4;514;99;22;19;12;0;6041;396;8;526;;26/04/2016;55;5339;0;484;105;32;21;5;0;6041;386;18;606
27/04/2016;98;10577;9;945;181;46;70;15;0;11941;771;17;1094;;27/04/2016;51;5295;3;495;85;18;38;10;0;5995;392;17;528;;27/04/2016;47;5282;6;450;96;28;32;5;0;5946;379;18;620
28/04/2016;90;10928;3;968;191;55;54;20;0;12309;795;17;1095;;28/04/2016;49;5519;1;490;94;25;22;12;0;6212;404;8;574;;28/04/2016;41;5409;2;478;97;30;32;8;0;6097;391;18;589
29/04/2016;110;11185;4;973;181;47;60;17;0;12577;803;18;1095;;29/04/2016;48;5617;1;519;88;22;32;9;0;6336;407;8;530;;29/04/2016;62;5568;3;454;93;25;28;8;0;6241;396;18;625
30/04/2016;166;10428;10;537;71;23;4;20;0;11259;684;17;935;;30/04/2016;73;5207;3;285;30;11;1;10;0;5620;343;17;484;;30/04/2016;93;5221;7;252;41;12;3;10;0;5639;341;11;480
01/05/2016;78;7509;1;259;11;8;0;16;0;7882;453;18;817;;01/05/2016;30;3726;1;134;1;4;0;10;0;3906;231;18;403;;01/05/2016;48;3783;0;125;10;4;0;6;0;3976;222;18;414
02/05/2016;83;10901;1;839;191;38;49;16;0;12118;785;17;1130;;02/05/2016;40;5459;0;425;93;20;26;9;0;6072;397;17;580;;02/05/2016;43;5442;1;414;98;18;23;7;0;6046;387;18;610
03/05/2016;111;10608;12;1009;191;40;37;19;0;12027;781;17;1088;;03/05/2016;50;5249;6;526;90;17;17;10;0;5965;391;17;553;;03/05/2016;61;5359;6;483;101;23;20;9;0;6062;390;18;640
04/05/2016;118;10612;6;854;195;54;42;16;0;11897;769;17;1072;;04/05/2016;63;5351;1;447;94;25;19;9;0;6009;391;17;538;;04/05/2016;55;5261;5;407;101;29;23;7;0;5888;378;18;590
05/05/2016;135;11152;12;972;185;53;67;17;0;12593;802;17;1130;;05/05/2016;69;5595;2;515;80;23;29;10;0;6323;407;8;580;;05/05/2016;66;5557;10;457;105;30;38;7;0;6270;395;17;562
06/05/2016;163;11191;8;1019;209;52;49;18;0;12709;807;17;1087;;06/05/2016;84;5610;2;528;96;21;22;10;0;6373;405;8;569;;06/05/2016;79;5581;6;491;113;31;27;8;0;6336;402;18;621
07/05/2016;223;11318;8;570;72;21;4;18;0;12234;739;17;1045;;07/05/2016;108;5661;5;304;32;14;1;10;0;6135;369;17;498;;07/05/2016;115;5657;3;266;40;7;3;8;0;6099;370;17;547